Location: Castelbiague
(43.0361°N, 0.9246°E)
Time: 16:32:38
(UTC+00:00)

Cosmos 1626 - Pass Details

Date: 23 October 2021
Orbit: 487 x 492 km, 82.5° (Epoch: 30 November)

Event Time Altitude Azimuth Distance (km) Brightness Sun altitude
Rises 04:01:08 0° 163° (SSE) 2,558 5.8 -25.9°
Reaches altitude 10° 04:03:24 10° 152° (SSE) 1,683 5.0 -25.5°
Maximum altitude 04:06:37 29° 91° (E) 927 4.1 -24.9°
Drops below altitude 10° 04:09:52 10° 30° (NNE) 1,697 5.3 -24.3°
Sets 04:12:09 0° 19° (NNE) 2,584 6.1 -23.9°
